Location: Aalen
(48.8330°N, 10.1000°E)
Time: 08:19:07
(UTC+01:00)

BlueWalker 3 - Visible Passes

Search period start: 02 December 2022 00:00
Search period end: 12 December 2022 00:00
Orbit: 500 x 519 km, 53.2° (Epoch: 01 December)

Date Brightness Start Highest point End Pass type
(mag) Time Alt. Az. Time Alt. Az. Time Alt. Az.
02 Dec 2.3 16:59:12 10° W 17:03:03 55° NNW 17:06:55 10° ENE visible
02 Dec 2.6 18:38:25 10° WNW 18:41:59 43° N 18:41:59 43° N visible
03 Dec 2.4 18:20:02 10° WNW 18:23:49 44° N 18:24:20 41° NNE visible
03 Dec 5.2 19:58:50 10° WNW 19:59:10 12° WNW 19:59:10 12° WNW visible
04 Dec 2.5 18:01:40 10° WNW 18:05:26 45° N 18:06:44 32° NE visible
04 Dec 4.6 19:40:27 10° WNW 19:41:33 18° WNW 19:41:33 18° WNW visible
05 Dec 2.4 17:43:16 10° WNW 17:47:04 45° N 17:49:10 23° ENE visible
05 Dec 3.9 19:22:03 10° WNW 19:24:00 28° WNW 19:24:00 28° WNW visible
06 Dec 2.4 17:24:53 10° WNW 17:28:41 46° N 17:31:39 15° E visible
06 Dec 2.9 19:03:39 10° WNW 19:06:30 46° WNW 19:06:30 46° WNW visible
07 Dec 2.4 17:06:29 10° WNW 17:10:17 46° N 17:14:04 10° E visible
07 Dec 2.0 18:45:15 10° WNW 18:49:06 72° SW 18:49:06 72° SW visible
08 Dec 2.1 18:26:50 10° WNW 18:30:44 69° SSW 18:31:50 43° SE visible
08 Dec 5.3 20:06:34 10° W 20:06:41 10° W 20:06:41 10° W visible
09 Dec 2.2 18:08:25 10° WNW 18:12:18 66° SSW 18:14:44 21° SE visible
09 Dec 4.9 19:48:18 10° W 19:49:36 13° WSW 19:49:36 13° WSW visible
10 Dec 2.4 17:50:00 10° WNW 17:53:52 63° SSW 17:57:43 10° SE visible
10 Dec 4.8 19:30:01 10° WSW 19:31:53 13° SW 19:32:46 12° SW visible
11 Dec 2.5 17:31:34 10° WNW 17:35:26 60° SSW 17:39:16 10° SE visible
11 Dec 5.0 19:11:46 10° WSW 19:13:25 12° SW 19:15:05 10° SSW visible
